Total_Precipitation_Accumulation
2.30 2.24 3.30 3.39 2.81 2.21 2.01 1.96 1.76 1.61 1.62 1.62 1.44 1.32 1.25 1.18 1.01 0.87 0.79 0.74 0.73 0.74 0.79 0.78 0.78 0.84 0.90 0.88 0.81 1.01 1.09 1.01 0.93 0.91 1.04 1.17 1.25 1.41 1.60 1.84 2.17 2.44 2.18
1.91 1.92 3.07 3.24 2.73 2.16 1.85 1.82 1.77 1.63 1.67 1.57 1.54 1.40 1.32 1.19 1.04 0.90 0.77 0.76 0.77 0.78 0.75 0.77 0.81 0.80 0.86 0.94 0.93 1.06 1.08 0.94 0.82 0.88 1.17 1.41 1.39 1.43 1.57 1.67 2.06 2.33 2.12
1.51 1.58 2.33 2.94 2.66 2.18 1.87 1.74 1.75 1.68 1.75 1.67 1.65 1.45 1.35 1.23 1.12 0.96 0.87 0.93 0.93 0.85 0.80 0.75 0.83 0.85 0.86 1.04 1.03 1.01 0.96 0.87 0.85 1.06 1.56 2.26 1.84 1.49 1.57 1.63 1.88 1.80 1.82
1.39 1.46 1.76 2.43 2.34 1.95 1.72 1.69 1.77 1.75 1.84 1.76 1.61 1.40 1.30 1.30 1.24 1.11 1.03 1.12 0.95 0.84 0.79 0.79 0.86 0.95 0.92 1.04 1.01 0.94 0.88 0.93 1.09 1.26 1.69 2.19 2.22 1.75 1.71 1.83 1.84 1.74 1.79
1.36 1.43 1.91 2.43 2.21 1.92 1.70 1.77 1.85 1.86 1.87 1.69 1.48 1.28 1.28 1.31 1.30 1.27 1.25 1.20 0.97 0.89 0.81 0.81 0.88 0.92 0.92 0.97 0.92 0.89 0.86 0.98 1.26 1.35 1.61 1.98 2.37 2.14 1.74 1.80 1.85 1.82 1.96
1.37 1.45 1.82 2.29 2.15 1.92 1.73 1.82 1.88 1.95 1.95 1.84 1.57 1.31 1.28 1.29 1.28 1.25 1.30 1.16 1.03 0.93 0.83 0.82 0.89 0.93 0.92 0.94 0.95 0.90 0.92 1.04 1.15 1.36 1.65 2.05 2.27 2.06 1.70 1.74 1.86 2.03 2.08
1.26 1.28 1.50 2.04 2.07 1.89 1.79 1.96 2.00 2.04 2.11 2.05 1.74 1.51 1.39 1.31 1.29 1.32 1.35 1.21 1.14 1.05 0.98 0.96 0.97 0.96 0.93 0.97 0.94 0.90 0.91 0.93 0.96 1.21 1.47 2.02 2.08 1.89 1.73 1.74 1.77 1.88 2.01
1.35 1.27 1.24 1.72 1.91 1.84 1.81 1.89 1.94 1.96 1.99 2.01 1.79 1.61 1.46 1.32 1.25 1.35 1.41 1.27 1.19 1.06 1.00 1.00 1.02 1.05 1.03 1.02 0.99 0.95 0.93 0.79 0.76 0.97 1.27 1.76 2.00 1.94 1.78 1.83 1.93 1.91 2.03
1.52 1.46 1.30 1.35 1.56 1.79 1.86 1.85 1.83 1.80 1.82 1.89 1.68 1.58 1.43 1.31 1.19 1.24 1.30 1.22 1.20 1.17 1.15 1.10 1.12 1.14 1.05 1.06 1.05 1.00 0.97 0.80 0.81 0.97 1.00 1.57 2.00 2.01 1.77 1.77 1.99 2.11 2.13
1.71 1.58 1.36 1.29 1.34 1.40 1.56 1.71 1.83 1.85 1.82 1.85 1.64 1.49 1.38 1.27 1.11 1.13 1.09 1.08 1.19 1.28 1.35 1.33 1.30 1.22 1.20 1.12 1.05 0.97 0.91 0.73 0.81 0.87 1.13 1.49 1.99 2.11 1.90 1.70 1.69 1.78 1.84
1.46 1.38 1.43 1.42 1.40 1.41 1.36 1.43 1.69 1.80 1.80 1.68 1.59 1.48 1.31 1.01 0.85 0.91 0.93 1.17 1.30 1.44 1.51 1.53 1.48 1.41 1.29 1.11 1.03 0.91 0.76 0.72 0.84 0.94 1.30 1.71 2.10 2.23 1.98 1.62 1.54 1.48 1.56
1.15 1.13 1.22 1.23 1.36 1.40 1.26 1.47 1.74 1.59 1.49 1.26 1.27 1.13 1.09 0.98 0.91 0.76 0.88 1.23 1.38 1.44 1.44 1.52 1.59 1.39 1.10 0.83 0.79 0.74 0.66 0.64 0.70 0.82 1.29 1.91 2.17 2.21 1.97 1.71 1.58 1.56 1.63
0.97 0.95 0.94 0.98 1.06 1.18 1.33 1.57 1.85 1.91 1.71 1.49 1.24 1.14 1.12 1.00 0.88 0.80 0.81 0.94 1.06 1.12 1.02 1.07 1.08 0.93 0.83 0.77 0.76 0.66 0.64 0.62 0.67 0.80 1.40 1.94 2.16 2.23 2.04 1.92 1.89 1.89 1.89
0.81 0.92 0.77 0.66 0.82 0.98 1.11 1.23 1.50 1.57 1.52 1.39 1.17 1.07 1.14 1.09 0.97 0.95 0.90 0.93 0.96 0.98 1.03 1.01 1.05 0.99 0.82 0.74 0.73 0.75 0.72 0.67 0.72 0.90 1.37 1.79 2.14 2.31 2.24 2.23 2.23 2.15 2.18
0.81 0.89 0.80 0.67 0.66 0.73 0.80 0.90 1.05 1.22 1.31 1.31 1.24 1.05 1.05 1.10 1.06 1.07 1.00 1.01 0.91 0.88 0.95 1.00 1.03 1.05 0.95 0.81 0.76 0.76 0.80 0.74 0.71 0.83 1.10 1.49 1.96 2.36 2.51 2.37 2.20 2.14 2.20
0.70 0.83 0.82 0.72 0.70 0.72 0.69 0.69 0.71 0.86 1.02 1.15 1.15 1.07 1.11 1.13 1.09 1.14 1.10 1.05 0.99 0.90 0.93 1.11 1.08 1.10 1.07 0.98 0.82 0.80 0.80 0.76 0.72 0.78 0.93 1.25 1.52 1.81 2.21 2.50 2.36 2.18 2.05
0.66 0.73 0.79 0.77 0.80 0.83 0.78 0.76 0.63 0.68 0.77 0.91 1.04 1.06 1.14 1.09 1.01 1.07 1.08 1.02 0.99 0.99 1.01 1.07 1.09 1.13 1.03 0.96 0.92 0.86 0.82 0.78 0.69 0.78 0.79 0.90 0.96 1.19 1.58 1.99 2.28 2.28 2.21
0.73 0.79 0.84 0.84 0.87 0.90 0.92 0.90 0.82 0.86 0.92 0.97 1.10 1.06 1.05 1.12 1.08 1.06 1.10 1.09 1.11 1.14 1.12 1.14 1.20 1.18 1.11 1.12 1.10 1.05 0.88 0.87 0.78 0.79 0.79 0.80 0.86 0.83 1.00 1.23 1.59 1.90 2.16
0.67 0.72 0.78 0.84 0.86 0.89 0.93 1.01 1.12 1.15 1.15 1.14 1.19 1.13 1.04 1.07 1.13 1.23 1.27 1.28 1.25 1.27 1.27 1.24 1.27 1.17 1.18 1.20 1.13 1.14 1.03 0.98 0.91 0.77 0.84 0.87 0.87 0.80 0.84 0.76 0.87 1.07 1.42
0.55 0.60 0.67 0.75 0.91 1.03 1.08 1.08 1.23 1.27 1.35 1.44 1.48 1.34 1.20 1.24 1.37 1.56 1.65 1.54 1.51 1.52 1.51 1.47 1.54 1.43 1.30 1.33 1.23 1.19 1.09 0.97 1.00 0.95 0.91 0.90 0.94 0.90 0.83 0.72 0.69 0.61 0.77
0.43 0.48 0.56 0.64 0.81 0.91 0.97 1.09 1.27 1.44 1.60 1.76 1.85 1.73 1.57 1.54 1.73 1.87 1.80 1.88 1.89 1.77 1.78 1.85 1.90 1.86 1.66 1.51 1.57 1.47 1.18 0.93 0.99 0.96 0.90 0.93 0.98 1.08 1.10 0.96 0.82 0.73 0.70
0.28 0.33 0.41 0.50 0.57 0.69 0.87 1.12 1.33 1.60 1.68 1.77 1.88 1.92 1.83 1.77 1.96 2.00 2.07 2.17 2.19 2.19 2.14 2.04 2.17 2.32 2.04 1.78 1.88 2.18 1.80 1.39 1.00 0.80 0.86 0.90 1.00 1.22 1.29 1.10 0.91 0.83 0.81
0.23 0.24 0.32 0.43 0.56 0.79 1.02 1.34 1.63 1.89 1.97 2.02 1.96 1.99 2.04 2.09 2.18 2.22 2.27 2.33 2.34 2.18 2.18 2.29 2.44 2.78 2.58 2.20 1.98 2.24 2.10 1.78 1.45 1.00 0.90 0.94 1.03 1.19 1.31 1.32 1.20 1.12 1.03
0.23 0.28 0.40 0.58 0.77 1.03 1.35 1.72 1.98 2.22 2.34 2.18 2.12 2.13 2.12 2.09 2.14 2.26 2.25 2.24 2.21 2.15 2.21 2.28 2.33 2.76 2.95 2.65 2.30 1.92 1.71 1.67 1.75 1.47 1.07 1.00 1.07 1.08 1.20 1.28 1.22 1.28 1.27
0.36 0.45 0.62 0.89 1.19 1.45 1.68 1.86 2.08 2.22 2.24 2.19 2.11 2.10 2.04 2.01 2.00 2.02 2.02 2.11 2.14 2.18 2.24 2.40 2.52 2.79 2.81 2.80 2.62 2.41 2.19 1.87 1.53 1.59 1.54 1.26 1.19 1.09 1.17 1.30 1.35 1.42 1.45
0.54 0.69 0.87 1.07 1.37 1.56 1.68 1.78 1.94 2.09 2.13 2.11 2.09 2.07 2.08 2.05 1.95 1.88 1.84 1.92 2.05 2.19 2.25 2.34 2.50 2.74 2.85 2.92 2.83 2.56 2.47 2.31 2.01 1.89 1.63 1.48 1.46 1.24 1.20 1.25 1.29 1.42 1.56